COSMOS 1275 DEB, 13021

Orbit data source: Space-Track

COSMOS 1275 DEB, 13021 is space debris in LEO originally from a launch on Thu, 04 Jun 1981 UTC launched from the Plesetsk Missile And Space Complex (PKMTR). Debris objects in space refer to the collection of defunct objects orbiting the Earth. Examples of debris include non-operational satellites, rocket bodies, and fragments generated from explosions, collisions, or faulty payload assembly.

Loading next visibility...
Identifier
13021, 1981-053ET
Orbit
LEO
Country
Flag of CISCIS
Related business
Manufacturer
Unknown
Mission
Spacecraft
Bus & Motor
Unknown
Mass
Unknown
Launch date (UTC)
1981-06-04 (45 years ago)
Launch vehicle
Unknown
Launch site
Plesetsk Missile And Space Complex (PKMTR)
Object type
Payload
Rocket body
Debris
Shape & HBR
Unknown shape, 0.1 m
Radar Cross Section
Small (<0.1 m²)

Expand to show TLE details & history
Last TLE update: 17 hours ago

TLE from 17 hours ago
0 COSMOS 1275 DEB
1 13021U 81053ET  26071.77903593  .00001624  00000-0  98007-3 0  9993
2 13021  83.1470   1.4253 0021707 112.1932 276.9605 14.05939647246132
Epoch: 2026-03-12T18:41Z
TLE epoch observation values (Epoch: 2026-03-12T18:41:48.704Z)
Latitude
28.72605°
Longitude
-85.69486°
Altitude
875.011 km
Speed
7.418 km/s
True Right ascension
00h 20m 43s
True Declination
28° 35' 01"
Sunlit
Object was in daylight at epoch
Visualization orbit readout
Latitude
Unknown
Longitude
Unknown
Altitude
Unknown
Speed
Unknown
Apparent Right ascension
Unknown
Apparent Declination
Unknown
Sunlit
N/A
Visualization observer readout
Local Sidereal Time
15:54:57
Azimuth
Unknown
Elevation
Unknown
Doppler factor
Unknown
Orbital elements
Apogee altitude
886.132 km
Perigee altitude
854.663 km
Semi-major axis
7,248.535 km
Eccentricity
0.00217
Inclination
83.147°
RAAN
1.4253°
Arg. of periapsis
112.1932°
True anomaly
276.71351°
Mean anomaly
276.9605°
Eccentric anomaly
276.83701°
Mean motion
3.51696 °/min
Orbital period
102.36 mins
BSTAR
0.00098007
Loading maneuver chart data...
Computing Atmospheric mass density...
Loading historical data...
Loading historical data...
Loading historical data...
Loading historical data...
Loading historical data...
Loading historical data...
Loading historical data...

Documentation

Showing up to 5 results
|